Location: Newark
(13.8117°N, 3.6025°W)
Time: 12:57:15
(UTC+00:00)

Explorer 11/Cluster Stage 4 - Pass Details

Date: 03 September 2019
Orbit: 467 x 1260 km, 28.8° (Epoch: 15 September)

Event Time Altitude Azimuth Distance (km) Brightness Sun altitude
Rises 07:33:55 0° 299° (WNW) 3,195 9.2 21.1°
Reaches altitude 10° 07:36:53 10° 317° (NW) 2,419 8.8 21.9°
Maximum altitude 07:41:06 20° 2° (N) 2,009 8.9 22.9°
Drops below altitude 10° 07:45:54 10° 47° (NE) 2,832 10.3 24.1°
Sets 07:49:45 0° 63° (ENE) 3,932 11.2 25.0°
